Terug naar catalogus

COSMOS 374 DEB

ActiefLEO
NORAD 14122·DEBRIS·🇷🇺 Russia

Gelanceerd Oct 23, 1970 vanaf Baikonur Cosmodrome

Loading…

Volgende Passages (komende 24 uur)

TLE

VersSource: Space-Track

Epoch: Sep 14, 2026, 11:34 UTC

1 14122U 70089CW  26257.48208962  .00024811  00000-0  14399-2 0  9999
2 14122  62.8627  72.5900 0217549  35.6742 325.8670 14.94294335253950

Volg COSMOS 374 DEB in realtime met AllMySat

Download on the App Store